[[{"header":{"parameterUnit":"m.s-1","parameterCategory":1,"la1":30.2991,"la2":30.254,"lo1":-89.0895,"lo2":-89.0444,"dy":0.0017,"dx":0.0017,"nx":28,"ny":28,"refTime":"2024-09-28T09:00:00:Z","depth":0,"parameterNumber":2,"parameterNumberName":"U-component_of_WINDS"},"data":[0,0,0,0,0,0,0,0,0,0,0,0,0,0,0,0,0,0,0,0,0,0,0,0,0,0,0,0,0,0,0,0,0,0,0,0,0,0,0,0,0,0,0,0,0,0,0,0,0,0,0,0,0,0,0,0,0,0,3.6835,3.6837,0,3.7013,3.7015,3.7017,3.6966,3.6963,3.6959,3.6956,3.7144,3.7152,3.716,0,0,0,0,0,0,0,0,0,0,0,0,0,3.6457,3.6465,3.6835,3.6837,3.684,3.7013,3.7015,3.7018,3.6967,3.6963,3.6958,3.6954,3.7141,3.7151,3.7161,0,0,0,0,0,0,0,0,0,0,0,0,0,3.6627,3.6467,3.6835,3.6835,3.6837,3.7012,3.7015,3.7018,3.6968,3.6962,3.6957,3.6952,3.7138,3.715,3.7162,3.735,0,0,3.7201,3.7206,0,0,0,0,0,0,0,0,3.6618,3.6641,3.6833,3.6835,3.6838,3.6962,3.6951,3.713,3.6969,3.6918,3.6956,3.6949,3.7088,3.7104,3.715,3.7359,3.7367,3.7202,3.721,3.7215,3.7219,0,0,0,0,0,0,0,3.6606,3.6633,3.6906,3.6836,3.6839,3.6828,3.6846,3.6984,3.7032,3.6922,3.6919,3.6941,3.7088,3.7138,3.7154,3.737,3.7202,3.7213,3.7221,3.7226,3.7742,3.7748,0,0,0,0,0,0,3.6591,3.6624,3.69,3.6911,3.6712,3.6839,3.686,3.6928,3.703,3.7041,3.6945,3.6938,3.7119,3.7139,3.716,3.7387,3.7215,3.7227,3.7234,3.7736,3.7743,3.775,0,0,0,0,0,0,3.6584,3.6617,3.6893,3.6767,3.6801,3.6852,3.6929,3.6934,3.6983,3.7047,3.7056,3.6987,3.7116,3.7143,3.7303,3.7393,3.7233,3.7244,3.7729,3.7738,3.7747,3.7841,0,0,0,0,0,0,3.6573,3.6614,3.6685,3.6768,3.6808,3.7031,3.6934,3.6941,3.7005,3.6996,3.7089,3.7099,3.7113,3.7284,3.7315,3.7407,3.7254,3.7721,3.7733,3.7744,3.783,3.7853,3.7872,0,0,0,0,0,3.656,3.6705,3.6688,3.6722,3.6897,3.7036,3.7059,3.7071,3.7012,3.7084,3.7125,3.7096,3.7378,3.7301,3.7336,3.7433,3.7715,3.7729,3.7743,3.7821,3.7848,3.7871,0,0,0,0,0,0,3.6633,3.6716,3.6698,3.6875,3.6949,3.7027,3.7118,3.7099,3.7192,3.7181,3.7194,3.7215,3.7379,3.7422,3.7335,3.762,3.7538,3.756,3.7586,3.7612,3.7632,3.7619,3.7264,0,0,0,0,0,3.6669,3.6774,3.6842,3.6991,3.7029,3.7068,3.7129,3.7132,3.7209,3.724,3.7293,3.7371,3.7477,3.7547,3.7648,3.7836,3.7856,3.792,3.7941,3.7957,3.7976,3.8079,3.8108,3.7795,3.7795,3.7795,0,0,3.6746,3.6805,3.687,3.7008,3.7065,3.7174,3.7094,3.7214,3.7295,3.7259,3.7413,3.7455,3.7543,3.7718,3.7797,3.7758,3.8067,3.7975,3.7988,3.7997,3.8096,3.8126,3.8152,3.7805,3.7803,3.7801,0,0,3.6942,3.6997,3.7127,3.7186,3.7273,3.7297,3.7329,3.7411,3.7436,3.759,3.7565,3.7664,3.7847,3.791,3.7966,3.8187,3.8163,3.8219,3.8327,3.8428,3.8452,3.8474,3.8553,3.8581,3.8238,3.8238,3.8238,0,3.7028,3.719,3.7197,3.7319,3.738,3.735,3.7484,3.7541,3.7658,3.7702,3.7656,3.7884,3.7941,3.813,3.8184,3.823,3.8268,3.8209,3.8448,3.847,3.849,3.8566,3.8595,3.8244,3.8243,3.8243,3.8242,0,3.729,3.7403,3.7499,3.7609,3.7682,3.7809,3.7837,3.791,3.7907,3.7937,3.8095,3.8162,3.8276,3.8322,3.8321,3.8512,3.8485,3.8443,3.8362,3.8526,3.8597,3.8626,3.8253,3.8251,3.8249,3.8247,0,0,3.7538,3.7651,3.7686,3.7736,3.7829,3.7918,3.8044,3.8153,3.8216,3.8298,3.8404,3.8559,3.8521,3.8585,3.8591,3.8679,3.885,3.8627,3.8629,3.8666,3.9065,3.9095,3.9129,3.8834,3.884,3.8844,3.9058,0,3.7742,3.7961,3.7972,3.8172,3.8277,3.8251,3.8361,3.8431,3.8463,3.8558,3.8593,3.8703,3.8644,3.8683,3.8769,3.8811,3.893,3.8795,3.8936,3.894,3.8914,3.9166,3.9199,3.9396,3.9085,3.909,3.9094,0,3.801,3.8097,3.8307,3.8386,3.843,3.8529,3.863,3.8721,3.8801,3.8817,3.8889,3.8882,3.9013,3.8926,3.9107,3.9016,3.9074,3.9103,3.9111,3.9125,3.9027,3.9187,3.946,3.9489,3.9137,3.9134,3.9131,0,3.8169,3.834,3.8488,3.8531,3.8627,3.8696,3.874,3.8814,3.8879,3.8969,3.9011,3.9116,3.9173,3.9255,3.9277,3.9212,3.9459,3.9374,3.9477,3.9477,3.9531,3.9527,3.9817,3.9568,3.9568,3.9567,3.9567,0,3.8396,3.8526,3.856,3.8652,3.8796,3.8808,3.8952,3.8991,3.9057,3.9156,3.9141,3.9235,3.9258,3.9357,3.9376,3.9523,3.955,3.9568,3.9571,3.9569,3.9567,3.9608,3.9595,3.9575,3.9573,3.9572,3.957,0,3.8599,3.8628,3.8787,3.8863,3.8886,3.8989,3.9055,3.9144,3.9173,3.9299,3.9329,3.9376,3.9492,3.9521,3.9661,3.9673,3.9847,3.9838,3.9819,3.9819,3.9921,3.9911,4.0248,4.0293,4.0014,4.0017,4.0019,0,3.8743,3.8841,3.8928,3.8992,3.9038,3.9142,3.9208,3.9224,3.9293,3.9392,3.9469,3.9582,3.9673,3.986,3.9907,4.0014,4.0007,4.0117,4.0023,4.0018,4.0009,4.0003,4.0013,4.0135,4.0138,4.0141,4.0143,0,3.8994,3.9002,3.9097,3.9197,3.9275,3.9355,3.9432,3.9486,3.9513,3.9593,3.9709,3.978,3.9921,4.0034,4.0141,4.0188,4.0171,4.0172,4.0202,4.0201,4.0186,4.0196,3.9869,4.0164,4.0162,4.0161,4.0159,4.0159,3.9171,3.9258,3.9332,3.9438,3.9497,3.9569,3.9655,3.9694,3.9791,3.9905,3.9909,4.0037,4.0115,4.0256,4.0309,4.041,4.0377,4.042,4.0431,4.0442,4.045,4.017,4.043,4.0429,4.0429,4.0428,4.0428,0,3.9422,3.9468,3.9565,3.9671,3.9755,3.9729,3.9813,3.9885,3.9997,4.007,4.0159,4.0294,4.0404,4.046,4.0569,4.0639,4.0634,4.0667,4.0662,4.0674,4.0474,4.0437,4.0669,4.0669,4.0669,4.0669,4.0669,4.0669,3.9562,3.9707,3.9724,3.9899,3.9944,4.0067,4.0117,4.0184,4.0242,4.0392,4.0482,4.0517,4.0584,4.0698,4.0798,4.0811,4.0853,4.089,4.09,4.0712,4.0688,4.0664,4.063,4.0899,4.0899,4.1091,4.1093,4.1094]},{"header":{"parameterUnit":"m.s-1","parameterCategory":1,"la1":30.2991,"la2":30.254,"lo1":-89.0895,"lo2":-89.0444,"dy":0.0017,"dx":0.0017,"nx":28,"ny":28,"refTime":"2024-09-28T09:00:00:Z","depth":0,"parameterNumber":3,"parameterNumberName":"V-component_of_WINDS"},"data":[0,0,0,0,0,0,0,0,0,0,0,0,0,0,0,0,0,0,0,0,0,0,0,0,0,0,0,0,0,0,0,0,0,0,0,0,0,0,0,0,0,0,0,0,0,0,0,0,0,0,0,0,0,0,0,0,0,0,-0.0095,-0.0094,0,-0.0031,-0.003,-0.003,-0.0033,-0.0034,-0.0035,-0.0036,0.0034,0.0037,0.004,0,0,0,0,0,0,0,0,0,0,0,0,0,-0.0215,-0.0213,-0.0095,-0.0094,-0.0093,-0.0031,-0.003,-0.003,-0.0033,-0.0034,-0.0035,-0.0036,0.0033,0.0037,0.004,0,0,0,0,0,0,0,0,0,0,0,0,0,-0.0158,-0.0212,-0.0095,-0.0088,-0.0086,-0.0031,-0.003,-0.0029,-0.0033,-0.0034,-0.0035,-0.0037,0.0032,0.0036,0.004,0.0093,0,0,0.0053,0.0055,0,0,0,0,0,0,0,0,-0.0161,-0.0153,-0.009,-0.0088,-0.0087,-0.0042,-0.0047,0.0012,-0.0032,-0.0053,-0.0036,-0.0037,0.0011,0.0016,0.0031,0.0097,0.01,0.0053,0.0056,0.0057,0.0059,0,0,0,0,0,0,0,-0.0165,-0.0156,-0.007,-0.0089,-0.0087,-0.0086,-0.0079,-0.0036,-0.0014,-0.0051,-0.0051,-0.0044,0.0011,0.0028,0.0033,0.0101,0.0053,0.0057,0.0059,0.0061,0.0215,0.0216,0,0,0,0,0,0,-0.0171,-0.0159,-0.0072,-0.0068,-0.0128,-0.0083,-0.0075,-0.0054,-0.0015,-0.001,-0.0043,-0.0044,0.0021,0.0028,0.0036,0.0102,0.0057,0.0061,0.0064,0.0213,0.0215,0.0217,0,0,0,0,0,0,-0.0174,-0.0163,-0.0074,-0.0114,-0.0102,-0.0079,-0.0056,-0.0052,-0.0036,-0.0008,-0.0004,-0.003,0.002,0.003,0.0079,0.0104,0.0063,0.0067,0.0211,0.0214,0.0216,0.0234,0,0,0,0,0,0,-0.0177,-0.0164,-0.0145,-0.0113,-0.01,-0.0033,-0.0054,-0.005,-0.003,-0.0031,0.0005,0.0009,0.002,0.0073,0.0083,0.0109,0.007,0.0209,0.0212,0.0215,0.0231,0.0237,0.0241,0,0,0,0,0,-0.0182,-0.0142,-0.0144,-0.0134,-0.0076,-0.0032,-0.0024,-0.0014,-0.0028,-0.0007,0.0011,0.0008,0.0099,0.0078,0.009,0.0117,0.0208,0.0211,0.0215,0.0229,0.0236,0.0241,0,0,0,0,0,0,-0.017,-0.0138,-0.014,-0.0089,-0.0063,-0.0032,-0.0006,-0.0007,0.0024,0.0022,0.0035,0.0043,0.0093,0.011,0.0085,0.0171,0.0152,0.0158,0.0159,0.0165,0.017,0.0166,0.0073,0,0,0,0,0,-0.0162,-0.013,-0.0103,-0.0061,-0.0048,-0.0029,-0.001,-0.0004,0.0024,0.0035,0.0057,0.0085,0.012,0.0143,0.0177,0.0233,0.0242,0.0258,0.0263,0.0267,0.0273,0.0306,0.0313,0.0229,0.0229,0.0229,0,0,-0.0144,-0.0123,-0.0103,-0.0058,-0.0037,-0.0003,-0.002,0.0017,0.0043,0.0041,0.0089,0.0106,0.0139,0.0192,0.0217,0.0208,0.0298,0.0272,0.0274,0.0278,0.031,0.0318,0.0325,0.0231,0.0231,0.0231,0,0,-0.0094,-0.0075,-0.0037,-0.0017,0.0014,0.0027,0.0036,0.0067,0.0078,0.0126,0.0125,0.0157,0.0217,0.0241,0.0261,0.0321,0.032,0.0331,0.0359,0.0391,0.0397,0.0403,0.0427,0.0435,0.0337,0.0337,0.0337,0,-0.0075,-0.0025,-0.0017,0.002,0.0041,0.0039,0.0079,0.0099,0.014,0.0155,0.0144,0.022,0.0242,0.0302,0.0316,0.0332,0.0344,0.0328,0.0395,0.0401,0.0407,0.043,0.0438,0.0338,0.0338,0.0338,0.0338,0,-0.0003,0.0032,0.0059,0.0098,0.0122,0.016,0.0175,0.0199,0.0202,0.0216,0.0266,0.0292,0.0332,0.0346,0.035,0.0407,0.0401,0.0392,0.0373,0.0417,0.0438,0.0447,0.034,0.034,0.0339,0.0339,0,0,0.0058,0.01,0.011,0.0128,0.0162,0.019,0.0229,0.0267,0.0287,0.0316,0.035,0.0401,0.0394,0.0416,0.0423,0.0451,0.0499,0.0439,0.044,0.0451,0.0566,0.0574,0.0583,0.0498,0.05,0.0501,0.0564,0,0.0113,0.0181,0.0189,0.025,0.0283,0.0282,0.0317,0.0342,0.0356,0.0388,0.0404,0.0441,0.0427,0.0441,0.0468,0.0487,0.0523,0.0483,0.0533,0.0534,0.0526,0.0594,0.0602,0.066,0.0572,0.0573,0.0574,0,0.0187,0.0216,0.028,0.0311,0.0325,0.0356,0.0391,0.0421,0.0451,0.0459,0.0485,0.0488,0.0531,0.0508,0.0568,0.0541,0.0562,0.0574,0.0577,0.0584,0.0558,0.0605,0.0679,0.0688,0.0587,0.0586,0.0585,0,0.0227,0.0283,0.0328,0.0344,0.038,0.0402,0.0418,0.0446,0.0469,0.05,0.0516,0.0552,0.0573,0.0602,0.0616,0.0598,0.0676,0.0654,0.0686,0.0686,0.0704,0.0703,0.0785,0.0714,0.0714,0.0714,0.0714,0,0.0289,0.0329,0.0347,0.0376,0.0421,0.043,0.0475,0.0491,0.0516,0.0549,0.0551,0.0582,0.0597,0.0632,0.0643,0.0692,0.0701,0.0711,0.0714,0.0712,0.0711,0.0727,0.0724,0.0716,0.0716,0.0715,0.0715,0,0.0342,0.0356,0.0406,0.0436,0.0444,0.0477,0.0503,0.0532,0.0545,0.0587,0.0598,0.062,0.066,0.0676,0.0726,0.0734,0.0791,0.079,0.0781,0.0782,0.0814,0.0812,0.091,0.0925,0.0843,0.0843,0.0844,0,0.0382,0.0412,0.0445,0.0467,0.0484,0.0518,0.0541,0.0552,0.0576,0.0613,0.0638,0.0677,0.071,0.0775,0.0797,0.0835,0.0836,0.0868,0.0842,0.084,0.084,0.0839,0.0843,0.0874,0.0875,0.0875,0.0876,0,0.0452,0.0457,0.0489,0.0524,0.055,0.0579,0.0606,0.0624,0.064,0.0667,0.0708,0.0733,0.0783,0.0824,0.0864,0.0883,0.0883,0.0884,0.0894,0.0893,0.0888,0.0893,0.0796,0.0882,0.0881,0.0881,0.0881,0.088,0.0501,0.0529,0.0556,0.0592,0.0614,0.064,0.0669,0.0685,0.0719,0.076,0.0765,0.0809,0.084,0.0893,0.0913,0.0949,0.0941,0.0955,0.0959,0.0963,0.0966,0.088,0.0956,0.0956,0.0956,0.0956,0.0956,0,0.0573,0.059,0.0623,0.0661,0.069,0.0686,0.0716,0.0741,0.078,0.0807,0.0839,0.0887,0.0927,0.0951,0.0991,0.1016,0.1017,0.1026,0.1026,0.103,0.097,0.0958,0.1024,0.1024,0.1024,0.1024,0.1024,0.1024,0.0614,0.0661,0.0669,0.0728,0.0746,0.0788,0.0806,0.0831,0.0853,0.0906,0.0938,0.0953,0.098,0.1023,0.1059,0.1066,0.1082,0.1092,0.1098,0.1041,0.1034,0.1028,0.1017,0.1094,0.1095,0.1156,0.1156,0.1157]}]]